• In Deutschland
  • Länderverzeichnis
  • Für 7 Tage
  • Wassertemperatur
  • Satellitenkarten
  • Wetterkarte
  • Widgets
  • user-avatar
    Anmelden

    Stündliche Wetter Klagenfurt

    Heute, 16 August, Mittwoch

    Zeit Temperatur Niederschläge Wind Luftdruck Luftfeuchtigkeit
    00:00 +15°C° 0 mm 0 m/S 693 mmHg 82%
    01:00 +14°C° 0 mm 0 m/S 693 mmHg 82%
    02:00 +14°C° 0 mm 0 m/S 693 mmHg 83%
    03:00 +14°C° 0 mm 0 m/S 693 mmHg 83%
    04:00 +14°C° 0 mm 0 m/S 693 mmHg 84%
    05:00 +15°C° 0 mm 0 m/S 693 mmHg 81%
    06:00 +16°C° 0 mm 0 m/S 693 mmHg 79%
    07:00 +19°C° 0 mm 1 m/S 694 mmHg 77%
    08:00 +22°C° 0,3 mm 1 m/S 694 mmHg 69%
    09:00 +24°C° 0,3 mm 1 m/S 695 mmHg 62%
    10:00 +25°C° 0,3 mm 0 m/S 695 mmHg 55%
    11:00 +27°C° 0,4 mm 1 m/S 695 mmHg 52%
    12:00 +28°C° 0,4 mm 1 m/S 695 mmHg 50%
    13:00 +29°C° 0,4 mm 1 m/S 695 mmHg 47%
    14:00 +28°C° 0,4 mm 1 m/S 695 mmHg 51%
    15:00 +27°C° 0,4 mm 1 m/S 694 mmHg 55%
    16:00 +26°C° 0,4 mm 1 m/S 694 mmHg 58%
    17:00 +24°C° 0,3 mm 1 m/S 694 mmHg 64%
    18:00 +22°C° 0,3 mm 1 m/S 694 mmHg 71%
    19:00 +21°C° 0,3 mm 1 m/S 693 mmHg 77%
    20:00 +20°C° 0,8 mm 1 m/S 693 mmHg 80%
    21:00 +19°C° 0,8 mm 1 m/S 693 mmHg 83%
    22:00 +18°C° 0,8 mm 1 m/S 694 mmHg 87%
    23:00 +16°C° 0,2 mm 1 m/S 693 mmHg 88%

    Morgen, 17 August, Donnerstag

    Zeit Temperatur Niederschläge Wind Luftdruck Luftfeuchtigkeit
    00:00 +16°C° 0,2 mm 1 m/S 693 mmHg 89%
    01:00 +15°C° 0,2 mm 1 m/S 693 mmHg 90%
    02:00 +15°C° 0 mm 1 m/S 693 mmHg 90%
    03:00 +15°C° 0 mm 1 m/S 693 mmHg 90%
    04:00 +14°C° 0 mm 1 m/S 693 mmHg 90%
    05:00 +15°C° 0 mm 1 m/S 693 mmHg 87%
    06:00 +18°C° 0 mm 1 m/S 693 mmHg 84%
    07:00 +19°C° 0 mm 1 m/S 694 mmHg 81%
    08:00 +21°C° 0 mm 1 m/S 694 mmHg 71%
    09:00 +24°C° 0 mm 1 m/S 695 mmHg 61%
    10:00 +27°C° 0 mm 1 m/S 695 mmHg 51%
    11:00 +28°C° 0 mm 1 m/S 695 mmHg 48%
    12:00 +28°C° 0 mm 1 m/S 695 mmHg 45%
    13:00 +29°C° 0 mm 1 m/S 695 mmHg 42%
    14:00 +29°C° 0 mm 1 m/S 694 mmHg 43%
    15:00 +29°C° 0 mm 1 m/S 694 mmHg 44%
    16:00 +28°C° 0 mm 1 m/S 694 mmHg 45%
    17:00 +26°C° 0 mm 1 m/S 694 mmHg 54%
    18:00 +24°C° 0 mm 1 m/S 693 mmHg 64%
    19:00 +19°C° 0 mm 0 m/S 693 mmHg 73%
    20:00 +18°C° 0 mm 0 m/S 693 mmHg 75%
    21:00 +17°C° 0 mm 0 m/S 693 mmHg 78%
    22:00 +16°C° 0 mm 0 m/S 693 mmHg 80%
    23:00 +18°C° 0 mm 1 m/S 693 mmHg 81%

    übermorgen, 18 August, Freitag

    Zeit Temperatur Niederschläge Wind Luftdruck Luftfeuchtigkeit
    00:00 +18°C° 0 mm 1 m/S 693 mmHg 82%
    01:00 +16°C° 0 mm 1 m/S 693 mmHg 83%
    02:00 +16°C° 0 mm 1 m/S 692 mmHg 84%
    03:00 +16°C° 0 mm 1 m/S 692 mmHg 85%
    04:00 +16°C° 0 mm 1 m/S 692 mmHg 86%
    05:00 +18°C° 0 mm 1 m/S 692 mmHg 82%
    06:00 +19°C° 0 mm 1 m/S 693 mmHg 79%
    07:00 +18°C° 0 mm 0 m/S 693 mmHg 75%
    08:00 +23°C° 0 mm 1 m/S 693 mmHg 66%
    09:00 +25°C° 0 mm 1 m/S 694 mmHg 56%
    10:00 +28°C° 0 mm 1 m/S 694 mmHg 46%
    11:00 +29°C° 0 mm 1 m/S 694 mmHg 43%
    12:00 +30°C° 0 mm 1 m/S 694 mmHg 40%
    13:00 +30°C° 0 mm 2 m/S 694 mmHg 37%
    14:00 +30°C° 0 mm 2 m/S 693 mmHg 38%
    15:00 +30°C° 0 mm 2 m/S 693 mmHg 39%
    16:00 +30°C° 0 mm 2 m/S 692 mmHg 40%
    17:00 +27°C° 0 mm 1 m/S 692 mmHg 50%
    18:00 +24°C° 0 mm 1 m/S 691 mmHg 59%
    19:00 +22°C° 0 mm 1 m/S 691 mmHg 69%
    20:00 +21°C° 0 mm 1 m/S 690 mmHg 72%
    21:00 +20°C° 0 mm 1 m/S 690 mmHg 75%
    22:00 +19°C° 0 mm 1 m/S 690 mmHg 77%
    23:00 +18°C° 0 mm 1 m/S 690 mmHg 78%

    19 August, Samstag

    Zeit Temperatur Niederschläge Wind Luftdruck Luftfeuchtigkeit
    00:00 +18°C° 0 mm 1 m/S 690 mmHg 79%
    01:00 +16°C° 0 mm 1 m/S 689 mmHg 79%
    02:00 +16°C° 0 mm 1 m/S 689 mmHg 79%
    03:00 +16°C° 0 mm 1 m/S 689 mmHg 78%
    04:00 +15°C° 0 mm 1 m/S 689 mmHg 78%
    05:00 +16°C° 0 mm 1 m/S 690 mmHg 76%
    06:00 +19°C° 0 mm 1 m/S 690 mmHg 73%
    07:00 +20°C° 0 mm 1 m/S 690 mmHg 71%
    08:00 +21°C° 0,3 mm 1 m/S 691 mmHg 67%
    09:00 +22°C° 0,3 mm 1 m/S 692 mmHg 63%
    10:00 +23°C° 0,3 mm 2 m/S 692 mmHg 59%
    11:00 +21°C° 0,7 mm 2 m/S 692 mmHg 64%
    12:00 +20°C° 0,7 mm 2 m/S 691 mmHg 69%
    13:00 +19°C° 0,7 mm 2 m/S 691 mmHg 74%
    14:00 +18°C° 2,9 mm 2 m/S 691 mmHg 80%
    15:00 +17°C° 2,9 mm 2 m/S 691 mmHg 86%
    16:00 +16°C° 2,9 mm 2 m/S 690 mmHg 92%
    17:00 +15°C° 1,3 mm 2 m/S 691 mmHg 93%
    18:00 +15°C° 1,3 mm 2 m/S 691 mmHg 93%
    19:00 +14°C° 1,3 mm 1 m/S 691 mmHg 94%
    20:00 +14°C° 0,6 mm 1 m/S 692 mmHg 94%
    21:00 +14°C° 0,6 mm 1 m/S 692 mmHg 94%
    22:00 +14°C° 0,6 mm 1 m/S 692 mmHg 93%
    23:00 +13°C° 0,5 mm 1 m/S 693 mmHg 94%

    20 August, Sonntag

    Zeit Temperatur Niederschläge Wind Luftdruck Luftfeuchtigkeit
    00:00 +13°C° 0,5 mm 1 m/S 693 mmHg 94%
    01:00 +13°C° 0,5 mm 2 m/S 693 mmHg 94%
    02:00 +13°C° 0,2 mm 2 m/S 693 mmHg 94%
    03:00 +12°C° 0,2 mm 2 m/S 692 mmHg 94%
    04:00 +12°C° 0,2 mm 1 m/S 692 mmHg 94%
    05:00 +12°C° 0,1 mm 2 m/S 693 mmHg 93%
    06:00 +13°C° 0,1 mm 2 m/S 693 mmHg 92%
    07:00 +13°C° 0,1 mm 2 m/S 694 mmHg 91%
    08:00 +15°C° 0 mm 2 m/S 694 mmHg 80%
    09:00 +16°C° 0 mm 2 m/S 694 mmHg 70%
    10:00 +17°C° 0 mm 2 m/S 695 mmHg 59%
    11:00 +19°C° 0 mm 2 m/S 695 mmHg 51%
    12:00 +20°C° 0 mm 2 m/S 695 mmHg 44%
    13:00 +21°C° 0 mm 3 m/S 695 mmHg 36%
    14:00 +21°C° 0 mm 3 m/S 695 mmHg 37%
    15:00 +21°C° 0 mm 3 m/S 695 mmHg 38%
    16:00 +21°C° 0 mm 3 m/S 695 mmHg 39%
    17:00 +19°C° 0 mm 2 m/S 694 mmHg 48%
    18:00 +17°C° 0 mm 2 m/S 694 mmHg 57%
    19:00 +15°C° 0 mm 1 m/S 694 mmHg 66%
    20:00 +13°C° 0 mm 1 m/S 694 mmHg 69%
    21:00 +12°C° 0 mm 1 m/S 694 mmHg 72%
    22:00 +11°C° 0 mm 1 m/S 695 mmHg 75%
    23:00 +10°C° 0 mm 1 m/S 694 mmHg 77%

    21 August, Montag

    Zeit Temperatur Niederschläge Wind Luftdruck Luftfeuchtigkeit
    00:00 +10°C° 0 mm 1 m/S 694 mmHg 79%
    01:00 +9°C° 0 mm 1 m/S 694 mmHg 80%
    02:00 +9°C° 0 mm 1 m/S 694 mmHg 82%
    03:00 +9°C° 0 mm 1 m/S 694 mmHg 83%
    04:00 +8°C° 0 mm 1 m/S 694 mmHg 84%
    05:00 +10°C° 0 mm 1 m/S 694 mmHg 79%
    06:00 +11°C° 0 mm 1 m/S 694 mmHg 74%
    07:00 +12°C° 0 mm 1 m/S 695 mmHg 70%
    08:00 +15°C° 0 mm 1 m/S 695 mmHg 59%
    09:00 +18°C° 0 mm 1 m/S 695 mmHg 49%
    10:00 +21°C° 0 mm 1 m/S 696 mmHg 38%
    11:00 +22°C° 0 mm 1 m/S 695 mmHg 35%
    12:00 +23°C° 0 mm 1 m/S 695 mmHg 33%
    13:00 +25°C° 0 mm 1 m/S 695 mmHg 30%
    14:00 +25°C° 0 mm 1 m/S 695 mmHg 31%
    15:00 +24°C° 0 mm 1 m/S 694 mmHg 32%
    16:00 +24°C° 0 mm 1 m/S 694 mmHg 33%
    17:00 +21°C° 0 mm 1 m/S 694 mmHg 43%
    18:00 +19°C° 0 mm 1 m/S 693 mmHg 53%
    19:00 +15°C° 0 mm 1 m/S 693 mmHg 63%
    20:00 +14°C° 0 mm 1 m/S 693 mmHg 64%
    21:00 +13°C° 0 mm 1 m/S 693 mmHg 66%
    22:00 +12°C° 0 mm 1 m/S 693 mmHg 67%
    23:00 +12°C° 0 mm 1 m/S 693 mmHg 67%
    Mehr zeigen